Regional Weather Roundup
Issued by NWS Albany, NY

Home | Current Version | Previous Version | Graphics & Text | Print | Product List | Glossary Off
Versions: 1 2 3 4 5 6 7 8 9 10 11 12 13 14 15 16 17 18 19 20 21 22 23 24 25 26 27 28 29 30 31 32 33 34 35 36 37 38 39 40 41 42 43 44 45 46 47 48 49 50

000
ASUS41 KALY 040710
RWRALY

NEW YORK STATE HOURLY WEATHER ROUNDUP
NATIONAL WEATHER SERVICE ALBANY NY
200 AM EST WED MAR 04 2015

NOTE: "FAIR" INDICATES FEW OR NO CLOUDS BELOW 12,000 FEET WITH NO
SIGNIFICANT WEATHER AND/OR NO OBSTRUCTIONS TO VISIBILITY.

NYZ032-033-038>043-046>054-057>066-NYZ062>081-040800-
EAST


CITY           SKY/WX    TMP DP  RH WIND       PRES   REMARKS
ALBANY         CLOUDY    32  26  78 S13G25    29.68F WCI  22
GLENS FALLS    LGT SNOW  28  25  88 SW8       29.66F FOG     WCI  20
POUGHKEEPSIE   CLOUDY    35  31  85 S3        29.76S
NEWBURGH       CLOUDY    34  32  93 W9        29.76F WCI  26
MONTGOMERY     CLOUDY    33  30  88 SW7       29.74R WCI  27
WHITE PLAINS   CLOUDY    34  32  92 VRB5      29.76F WCI  30
ISLIP          CLOUDY    36  33  89 SW12      29.79F WCI  28
NEW YORK CITY  CLOUDY    36  32  85 SW7       29.79F WCI  30
CENTRAL PARK   CLOUDY    36  31  82 VRB3      29.81F
$$

NYZ005>009-017-018-044>046-055-056-040800-
CENTRAL


CITY           SKY/WX    TMP DP  RH WIND       PRES   REMARKS
FULTON         MIX PCPN  35  30  82 W16G25    29.69R WCI  25
SYRACUSE       CLOUDY    31  31 100 SW9       29.69R WCI  23
ROME           FRZ RAIN  31  30  96 SW8       29.68R FOG     WCI  23
ELMIRA         CLOUDY    32  30  92 E3        29.68R
BINGHAMTON     CLOUDY    29  26  89 SW12      29.66R WCI  19
MONTICELLO     CLOUDY    25  25 100 CALM      29.72S
$$

NYZ026>034-041>043-040800-
NORTH


CITY           SKY/WX    TMP DP  RH WIND       PRES   REMARKS
WATERTOWN      CLOUDY    35  31  85 SW14G23   29.65R WCI  26
FORT DRUM      NOT AVBL
MASSENA        LGT RAIN  33  31  92 SW14      29.58R WCI  23
SARANAC LAKE   CLOUDY    29  27  92 SW13G24   29.49R FOG     WCI  19
PLATTSBURGH    CLOUDY    27  23  85 SE13      29.55F WCI  16
$$

NYZ001>004-010>016-019>021-040800-
WEST


CITY           SKY/WX    TMP DP  RH WIND       PRES   REMARKS
NIAGARA FALLS  MIX PCPN  33  31  92 W15       29.72R FOG     WCI  23
BUFFALO        LGT RAIN  34  32  92 W14       29.71R FOG     WCI  25
DUNKIRK        CLOUDY    34  32  92 SW16G26   29.75R WCI  24
JAMESTOWN      CLOUDY    34  30  86 W18G26    29.72R WCI  23
WELLSVILLE     CLOUDY    36  33  89 W22G28    29.67R WCI  25
ROCHESTER      DRIZZLE   36  32  85 W16       29.70R WCI  26
PENN YAN       CLOUDY    40  32  73 W10G23    29.69R WCI  33
$$

             KEY
       WCI = WIND CHILL INDEX
       VSB = VISIBILITY
       HX  = HEAT INDEX
$$



USA.gov is the U.S. government's official web portal to all federal, state and local government web resources and services.